Location: Hill Town
(35.7703°N, 87.1321°W)
Time: 04:26:20
(UTC-05:00)

Tiangong 2 - Visible Passes

Search period start: 19 July 2018 00:00
Search period end: 29 July 2018 00:00
Orbit: 386 x 394 km, 42.8° (Epoch: 18 July)

Date Brightness Start Highest point End Pass type
(mag) Time Alt. Az. Time Alt. Az. Time Alt. Az.
19 Jul 2.9 21:34:29 10° NW 21:37:16 26° N 21:39:00 17° ENE visible
19 Jul 4.4 23:11:11 10° WNW 23:11:19 11° WNW 23:11:19 11° WNW visible
20 Jul 3.2 20:36:46 10° NW 20:39:23 23° N 20:42:01 10° ENE visible
20 Jul 2.2 22:13:31 10° WNW 22:16:01 45° NNW 22:16:01 45° NNW visible
21 Jul 2.3 21:15:52 10° NW 21:18:52 36° NNE 21:20:44 19° ENE visible
21 Jul 4.2 22:52:45 10° WNW 22:53:03 12° WNW 22:53:03 12° WNW visible
22 Jul 1.3 21:54:55 10° WNW 21:57:47 66° W 21:57:47 66° W visible
23 Jul 1.4 20:57:13 10° WNW 21:00:23 61° NNE 21:02:33 18° E visible
23 Jul 4.1 22:34:40 10° W 22:34:52 11° W 22:34:52 11° W visible
24 Jul 2.0 21:36:29 10° WNW 21:39:26 35° SSW 21:39:40 35° SSW visible
25 Jul 1.2 20:38:36 10° WNW 20:41:47 68° SSW 20:44:31 13° SE visible
26 Jul 3.2 21:18:28 10° W 21:20:39 17° SW 21:21:45 15° SSW visible
